Flag for Iran Weather past 2 weeks in Behbahan, Iran

Now
86 °F

Clear.


Feels Like: 83 °F
Forecast: 80 / 112 °F
Wind: No wind

Location: Gach Saran Du Gunbadan

Current Time: Jul 31, 2014 at 2:16:55 AM

Latest Report: Jul 31, 2014 at 12:30 AM


Visibility: 10 mi

Pressure: 29.62 "Hg

Humidity: 25%

Dew point: 46 °F

Location of BehbahanLocation

Historic Weather in Behbahan — Graph

°F

Behbahan temperature yesterday

Maximum temperature yesterday: 108 °F (at 4:30 PM)
Minimum temperature yesterday: 73 °F (at 8:30 AM)
Average temperature yesterday: 95 °F

Past Weeks' High & Low Weather Summary

 TemperatureHumidityPressure
High115 °F (Jul 17, 1:30 PM)44% (Jul 30, 8:30 AM)29.74 "Hg (Jul 30, 8:30 AM)
Low73 °F (Jul 30, 8:30 AM)4% (Jul 17, 5:30 PM)29.53 "Hg (Jul 17, 6:30 PM)
Average97 °F14%29.61 "Hg
* Reported Jul 16 12:30 AM — Jul 31 12:30 AM, Behbahan, Weather by CustomWeather, © 2014

Note: Actual official high and low records may vary slightly from our data, if they occured in-between our weather recording intervals... More about our weather records

Advertising

Behbahan weather history for previous 24 hours

 ConditionsComfort  
Time TempWeatherWind HumidityBarometerVisibility
12:30 AM
Jul 31
86 °FClear.No wind25%29.62 "Hg10 mi
11:30 PM
Jul 30
90 °FClear.No wind24%29.62 "Hg10 mi
10:30 PM91 °FClear.5 mph23%29.62 "Hg10 mi
8:30 PM97 °FSunny.9 mph20%29.59 "Hg10 mi
6:30 PM104 °FSunny.14 mph14%29.56 "Hg10 mi
5:30 PM106 °FSunny.9 mph13%29.56 "Hg10 mi
4:30 PM108 °FSunny.12 mph13%29.56 "Hg10 mi
2:30 PM104 °FSunny.5 mph14%29.59 "Hg10 mi
1:30 PM104 °FSunny.5 mph15%29.59 "Hg10 mi
12:30 PM104 °FSunny.5 mph16%29.59 "Hg10 mi
11:30 AM99 °FSunny.7 mph21%29.56 "Hg10 mi
10:30 AM97 °FSunny.7 mph20%29.59 "Hg10 mi
9:30 AM93 °FSunny.No wind30%29.56 "Hg10 mi
8:30 AM73 °FSunny.No wind44%29.56 "Hg10 mi
6:30 AM77 °FClear.No wind39%29.56 "Hg10 mi
5:30 AM77 °FClear.No wind39%29.56 "Hg10 mi
Weather by CustomWeather, © 2014

See weather overviewHow to use our weather pages